Lyndonville, VT

9:51 PM EDT on March 25, 2017 (GMT -0400)
Lyndonville

Weather History for KCDA - January, 2013

Change the Weather History Date:

Saturday, January 19, 2013

  Actual Average (K1V4) Record (K1V4)
Temperature  
Mean Temperature 20 °F -  
Max Temperature 32 °F 20 °F 60 °F (1996)
Min Temperature 7 °F 2 °F -34 °F (1904)
Degree Days  
Heating Degree Days 46    
Moisture  
Dew Point 14 °F    
Average Humidity 75    
Maximum Humidity 86    
Minimum Humidity 61    
Precipitation  
Precipitation 0.00 in - - ()
Sea Level Pressure  
Sea Level Pressure 29.96 in    
Wind  
Wind Speed 4 mph (SSW)    
Max Wind Speed 8 mph    
Max Gust Speed -    
Visibility 7 miles    
Events Snow    
Averages and records for this station are not official NWS values.
T = Trace of Precipitation, MM = Missing Value Source: NWS Daily Summary

Daily Weather History Graph

Daily Weather History Graph

Search for Another Location

Airport or City:

Trip Planner

Search our weather history database for the weather conditions in past years. The results will help you decide how hot, cold, wet, or windy it might be!

Date:

Astronomy

Jan. 19, 2013 Rise Set
Actual Time 7:18 AM EST 4:39 PM EST
Civil Twilight 6:46 AM EST 5:11 PM EST
Nautical Twilight 6:10 AM EST 5:47 PM EST
Astronomical Twilight 5:36 AM EST 6:22 PM EST
Moon 11:06 AM EST (1/19) 12:46 AM EST (1/19)
Length of Visible Light 10h 25m
Length of Day
9h 20m
First Quarter, 57% of the Moon is Illuminated
Jan 19
First Quarter
Jan 26
Full
Feb 3
Last Quarter
Feb 10
New
Feb 17
First Quarter

Hourly Weather History & Observations

Time (EST) Temp. Windchill Dew Point Humidity Pressure Visibility Wind Dir Wind Speed Gust Speed Precip Events Conditions
12:15 AM 7.3 °F -1.3 °F -3.5 °F 61% 30.20 in 10.0 mi SW 4.6 mph - N/A   Overcast
12:35 AM 7.5 °F - -2.2 °F 65% 30.20 in 7.0 mi Calm Calm - N/A   Overcast
12:55 AM 7.5 °F - -0.9 °F 68% 30.18 in 3.0 mi Calm Calm - N/A Snow Light Snow
1:15 AM 9.0 °F 0.6 °F 2.8 °F 76% 30.18 in 2.0 mi SW 4.6 mph - N/A Snow Light Snow
1:35 AM 9.1 °F 2.6 °F 3.7 °F 79% 30.17 in 2.0 mi SW 3.5 mph - N/A Snow Light Snow
1:55 AM 9.1 °F -0.7 °F 4.5 °F 81% 30.16 in 2.0 mi SW 5.8 mph - N/A Snow Light Snow
2:15 AM 9.5 °F 3.0 °F 5.0 °F 82% 30.16 in 2.0 mi SW 3.5 mph - N/A Snow Light Snow
2:35 AM 10.0 °F 3.6 °F 5.7 °F 83% 30.15 in 2.0 mi SW 3.5 mph - N/A Snow Light Snow
2:55 AM 10.4 °F 4.0 °F 6.1 °F 83% 30.13 in 2.0 mi SW 3.5 mph - N/A Snow Light Snow
3:15 AM 10.9 °F 2.9 °F 6.8 °F 83% 30.12 in 2.0 mi SW 4.6 mph - N/A Snow Light Snow
3:35 AM 11.5 °F 0.9 °F 7.3 °F 83% 30.10 in 2.0 mi SW 6.9 mph - N/A Snow Light Snow
3:55 AM 11.8 °F 1.3 °F 7.7 °F 83% 30.09 in 1.8 mi SW 6.9 mph - N/A Snow Light Snow
4:15 AM 12.2 °F 0.7 °F 8.2 °F 84% 30.08 in 1.5 mi SW 8.1 mph - N/A Snow Light Snow
4:35 AM 12.7 °F 1.4 °F 8.6 °F 84% 30.07 in 1.2 mi SW 8.1 mph - N/A Snow Light Snow
4:55 AM 13.1 °F 1.8 °F 9.3 °F 85% 30.05 in 1.0 mi SW 8.1 mph - N/A Snow Snow
5:15 AM 13.8 °F 3.7 °F 10.0 °F 85% 30.05 in 0.8 mi SW 6.9 mph - N/A Snow Snow
5:35 AM 14.4 °F 4.3 °F 10.6 °F 85% 30.04 in 1.0 mi SW 6.9 mph - N/A Snow Snow
5:55 AM 14.7 °F 4.8 °F 11.1 °F 86% 30.04 in 1.8 mi SW 6.9 mph - N/A Snow Light Snow
6:15 AM 15.3 °F 6.6 °F 11.7 °F 86% 30.04 in 1.5 mi SW 5.8 mph - N/A Snow Light Snow
6:35 AM 15.6 °F 5.9 °F 12.0 °F 86% 30.04 in 1.5 mi SW 6.9 mph - N/A Snow Light Snow
6:55 AM 16.0 °F 5.3 °F 12.4 °F 86% 30.03 in 1.5 mi SW 8.1 mph - N/A Snow Light Snow
8:15 AM 17.6 °F 7.3 °F 14.0 °F 86% 30.01 in 2.5 mi SW 8.1 mph - N/A Snow Light Snow
8:55 AM 18.3 °F 10.2 °F 13.8 °F 83% 30.01 in 10.0 mi SW 5.8 mph - N/A   Overcast
9:15 AM 18.7 °F 10.6 °F 13.6 °F 81% 30.01 in 10.0 mi SW 5.8 mph - N/A   Overcast
9:35 AM 19.4 °F 12.8 °F 13.6 °F 78% 30.00 in 10.0 mi WSW 4.6 mph - N/A   Overcast
10:35 AM 20.8 °F 13.2 °F 13.8 °F 74% 29.98 in 10.0 mi South 5.8 mph - N/A   Overcast
10:55 AM 21.2 °F 13.6 °F 14.4 °F 75% 29.96 in 10.0 mi South 5.8 mph - N/A   Overcast
11:15 AM 22.1 °F 13.7 °F 14.2 °F 72% 29.95 in 10.0 mi SSE 6.9 mph - N/A   Overcast
11:35 AM 22.5 °F 14.1 °F 14.5 °F 72% 29.93 in 10.0 mi South 6.9 mph - N/A   Overcast
11:55 AM 23.0 °F 14.7 °F 14.9 °F 71% 29.93 in 10.0 mi South 6.9 mph - N/A   Overcast
12:15 PM 23.0 °F 15.8 °F 15.3 °F 72% 29.92 in 10.0 mi SSE 5.8 mph - N/A   Overcast
12:35 PM 23.5 °F 17.6 °F 15.4 °F 71% 29.91 in 10.0 mi SSE 4.6 mph - N/A   Overcast
12:55 PM 23.9 °F 18.0 °F 16.0 °F 72% 29.90 in 10.0 mi South 4.6 mph - N/A   Overcast
1:15 PM 24.6 °F - 16.3 °F 71% 29.91 in 10.0 mi Calm Calm - N/A   Overcast
1:35 PM 24.8 °F - 16.3 °F 70% 29.90 in 10.0 mi Calm Calm - N/A   Overcast
1:55 PM 25.5 °F 21.3 °F 16.5 °F 69% 29.91 in 10.0 mi SSE 3.5 mph - N/A   Overcast
2:55 PM 26.6 °F - 17.6 °F 69% 29.90 in 10.0 mi Calm Calm - N/A   Overcast
3:15 PM 26.2 °F - 19.0 °F 74% 29.90 in 10.0 mi Calm Calm - N/A   Overcast
3:35 PM 26.1 °F - 19.4 °F 76% 29.90 in 10.0 mi Calm Calm - N/A   Overcast
3:55 PM 26.6 °F - 18.5 °F 71% 29.90 in 10.0 mi Calm Calm - N/A   Overcast
4:15 PM 27.1 °F - 18.7 °F 70% 29.90 in 10.0 mi Calm Calm - N/A   Overcast
4:35 PM 26.6 °F - 19.9 °F 76% 29.89 in 10.0 mi Calm Calm - N/A   Overcast
4:55 PM 27.5 °F - 19.0 °F 71% 29.90 in 10.0 mi Calm Calm - N/A   Overcast
5:15 PM 27.3 °F - 19.2 °F 72% 29.89 in 10.0 mi Calm Calm - N/A   Overcast
5:35 PM 27.3 °F - 19.6 °F 73% 29.89 in 10.0 mi Calm Calm - N/A   Overcast
5:55 PM 28.0 °F - 19.0 °F 69% 29.89 in 10.0 mi Calm Calm - N/A   Overcast
6:15 PM 28.0 °F - 19.2 °F 70% 29.88 in 10.0 mi Calm Calm - N/A   Overcast
6:35 PM 26.6 °F - 22.1 °F 83% 29.88 in 10.0 mi Calm Calm - N/A   Overcast
6:55 PM 26.6 °F - 21.2 °F 80% 29.88 in 10.0 mi Calm Calm - N/A   Overcast
7:15 PM 26.6 °F - 20.5 °F 78% 29.88 in 10.0 mi Calm Calm - N/A   Overcast
7:35 PM 27.1 °F - 21.0 °F 78% 29.87 in 10.0 mi Calm Calm - N/A   Overcast
7:55 PM 27.1 °F - 21.0 °F 78% 29.87 in 10.0 mi Calm Calm - N/A   Overcast
8:15 PM 29.3 °F - 20.3 °F 69% 29.86 in 10.0 mi Calm Calm - N/A   Overcast
8:35 PM 30.0 °F - 20.1 °F 67% 29.86 in 10.0 mi Calm Calm - N/A   Overcast
8:55 PM 30.2 °F - 20.1 °F 66% 29.84 in 10.0 mi Calm Calm - N/A   Overcast
9:15 PM 27.1 °F - 22.1 °F 81% 29.84 in 10.0 mi Calm Calm - N/A   Overcast
9:35 PM 28.4 °F - 21.2 °F 74% 29.83 in 10.0 mi Calm Calm - N/A   Overcast
9:55 PM 29.5 °F - 20.7 °F 70% 29.81 in 10.0 mi Calm Calm - N/A   Overcast
10:15 PM 30.0 °F - 20.7 °F 68% 29.80 in 10.0 mi Calm Calm - N/A   Mostly Cloudy
10:35 PM 30.6 °F 24.7 °F 21.0 °F 68% 29.79 in 10.0 mi South 5.8 mph - N/A   Scattered Clouds
10:55 PM 32.0 °F 26.4 °F 20.8 °F 63% 29.78 in 10.0 mi South 5.8 mph - N/A   Overcast
11:15 PM 32.4 °F 26.9 °F 21.0 °F 63% 29.76 in 10.0 mi South 5.8 mph - N/A   Overcast
11:35 PM 32.2 °F 27.7 °F 21.4 °F 64% 29.75 in 10.0 mi South 4.6 mph - N/A   Overcast
11:55 PM 32.0 °F 26.4 °F 21.7 °F 66% 29.74 in 10.0 mi SSE 5.8 mph - N/A   Overcast